Regional Weather Roundup
Issued by NWS Bismarck, ND

Home | Current Version | Previous Version | Text Only | Print | Product List | Glossary On
Versions: 1 2 3 4 5 6 7 8 9 10 11 12 13 14 15 16 17 18 19 20 21 22 23 24 25 26 27 28 29 30 31 32 33 34 35 36 37 38 39 40 41 42 43 44 45 46 47 48 49 50
000
ASUS43 KBIS 012220
RWRBIS

NWR BROADCAST TEXT
NATIONAL WEATHER SERVICE BISMARCK ND
400 PM CST SUN FEB 01 2015

NOTE: "FAIR" INDICATES FEW OR NO CLOUDS BELOW 12,000 FEET WITH NO
SIGNIFICANT WEATHER AND/OR OBSTRUCTIONS TO VISIBILITY.


CITY           SKY/WX    TMP DP  RH WIND       PRES   REMARKS
WILLISTON      SUNNY      7  -7  52 SW9       30.28F WCI  -7
MINOT          SUNNY      5 -10  50 SW12      30.32F WCI -11
MINOT AFB      SUNNY      6  -7  54 SW8       30.31F WCI  -7
BISMARCK       SUNNY      4 -12  48 W8        30.39F WCI  -9
DICKINSON      SUNNY      6  -5  60 SW6       30.23F WCI  -4
GARRISON         N/A      3 -11  52 W9        30.32F WCI -12
HETTINGER ARPT SUNNY      7   0  73 W6        30.27F WCI  -3
JAMESTOWN      SUNNY      4 -12  48 N5        30.36F WCI  -5
BEACH          FAIR       9   3  78 SW10      30.22F WCI  -6
CARRINGTON     FAIR       1 -11  55 MISG      30.38S
CROSBY         FAIR       9   0  66 SW12      30.26F WCI  -6
HARVEY         FAIR       1  -9  60 W7        30.36F WCI -11
HAZEN          FAIR       3 -13  47 W7        30.35F WCI  -9
LINTON         FAIR       1 N/A N/A NW7       30.38F WCI -11
MANDAN         FAIR       3 -11  51 W8        30.37S WCI -10
OAKES            N/A      5  -9  51 NW13      30.39S WCI -12
RUGBY          FAIR       0 N/A N/A W7        30.36F WCI -13
STANLEY        FAIR       5  -8  56 SW10      30.24F WCI -10
TIOGA          FAIR       5  -2  72 S9        30.27F WCI  -9
WATFORD CITY   FAIR       7  -9  47 SW7       30.25F WCI  -5
$$

CITY           SKY/WX    TMP DP  RH WIND       PRES   REMARKS
GRAND FORKS    SUNNY      2 -12  52 N6        30.45F WCI  -9
GRAND FORKS AF SUNNY      3 -17  39 VRB3      30.44F
DEVILS LAKE    SUNNY      1 -15  46 W9        30.36F WCI -14
FARGO          SUNNY      5 -13  43 N12       30.43F WCI -11
CANDO          FAIR       0 -13  55 W10       30.37F WCI -17
CAVALIER       FAIR       0 -13  55 W8        30.43F WCI -15
GWINNER        CLEAR      9  -9  43 N12       30.40F WCI  -6
ROLLA          FAIR      -2 -17  50 SW13      30.31F WCI -21
WALHALLA         N/A      0 -15  50 W5        30.42F WCI -10
$$

CITY           SKY/WX    TMP DP  RH WIND       PRES   REMARKS
ABERDEEN       SUNNY      7  -8  50 N14       30.40F WCI -10
MOBRIDGE       SUNNY      7 -11  43 N6        30.36F WCI  -3
BUFFALO          N/A     14   5  67 SW8       30.16F WCI   3
RAPID CITY     PTSUNNY   14   7  73 CALM      30.26F
GLASGOW        SUNNY     10   2  69 SE13      30.16F WCI  -5
SIDNEY         SUNNY      9  -9  43 S8        30.28F WCI  -4
WOLF POINT     SUNNY     15   4  61 SW7       30.23F WCI   5
GLENDIVE       SUNNY     10   1  67 S9        30.22F WCI  -2
MILES CITY     SUNNY     16   7  67 SE12      30.19F WCI   3
BAKER          SUNNY     13   6  74 S8        30.20F WCI   2
$$

CITY           SKY/WX    TMP DP  RH WIND       PRES   REMARKS
BILLINGS       PTSUNNY   20  11  68 SE5       30.07F WCI  13
GREAT FALLS    CLOUDY    29  20  69 S17       29.93F WCI  17
REGINA         CLOUDY     3  -4  72 SE13      30.18F WCI -14
ESTEVAN        MOSUNNY    9  -2  61 SW12      30.25F WCI  -6
$$




USA.gov is the U.S. government's official web portal to all federal, state and local government web resources and services.